Location: Newport
(44.6370°N, 124.0520°W)
Time: 10:27:26
(UTC-07:00)

ISS - Pass Details

Date: 14 October 2017
Orbit: 401 x 408 km, 51.6° (Epoch: 23 October)

Event Time Altitude Azimuth Distance (km) Brightness Sun altitude
Rises 19:30:21 0° 297° (WNW) 2,326 1.2 -11.0°
Reaches altitude 10° 19:32:29 10° 290° (WNW) 1,464 0.2 -11.4°
Maximum altitude 19:35:38 44° 217° (SW) 576 -2.8 -12.0°
Drops below altitude 10° 19:38:46 10° 144° (SE) 1,460 -1.4 -12.5°
Enters shadow 19:38:54 - 144° (SE) 1,510 -1.3 -12.5°
